RH
29 34 46 47 49 62 65 60 61 62 62 67 71 75 76 75 77 80 81 80 76 75 76 79 80 78 79 82 84 83 80 76 68 59 57 59 58 57 56 53 48 44 44 47 47 46 43 44 44 44 44 45 46 47 47 46 45 42 40 39 39 40 41
28 31 44 51 52 60 65 63 64 64 62 64 68 74 77 75 75 77 78 78 75 73 75 78 78 79 81 82 83 84 82 78 70 60 56 57 57 57 58 56 53 49 47 48 48 47 45 45 45 44 43 43 44 46 48 47 46 44 41 40 39 39 40
33 34 44 56 55 56 63 65 65 66 67 66 64 68 73 74 76 77 75 76 74 71 75 78 76 77 81 83 84 83 81 78 70 61 57 56 56 57 58 58 57 54 50 49 49 48 47 46 46 46 44 43 43 44 47 48 47 46 44 41 39 38 39
37 39 47 59 56 52 54 58 61 65 68 69 65 62 63 65 72 76 73 74 72 67 70 75 75 76 80 82 84 82 79 77 69 61 58 57 56 56 57 56 55 52 51 51 50 50 50 49 48 48 46 45 46 46 47 48 48 49 47 44 40 38 37
38 39 43 48 50 50 49 49 55 59 60 62 61 59 58 59 69 77 75 74 71 65 67 72 72 76 80 82 82 81 79 77 72 65 60 57 57 56 56 56 54 52 51 52 53 53 53 53 52 51 49 48 48 50 51 50 49 49 49 47 44 42 39
40 41 40 41 45 49 50 51 54 54 54 57 58 58 60 60 65 72 70 69 67 65 68 71 70 74 80 82 81 80 79 78 76 72 67 61 59 58 58 59 57 55 52 50 52 54 55 56 55 54 53 52 51 52 55 55 52 51 50 50 48 46 42
42 42 43 45 47 49 52 57 56 53 56 59 57 56 58 59 63 66 65 63 63 64 70 73 71 73 78 80 80 79 79 79 77 75 73 69 65 61 60 61 60 58 55 52 51 52 54 55 55 55 55 56 55 54 56 58 58 55 53 52 51 50 46
49 45 47 49 51 52 54 55 55 54 57 60 57 53 54 59 63 65 64 63 61 64 70 73 71 71 75 79 81 80 81 81 80 78 77 74 71 68 64 63 62 61 59 56 53 52 52 52 53 54 54 55 56 55 55 57 60 60 56 54 53 51 49
56 50 52 55 54 55 53 54 56 56 56 57 53 50 52 56 61 63 62 63 63 62 66 72 72 71 75 80 84 84 84 86 85 84 82 78 74 71 70 68 67 65 62 60 58 56 55 54 53 52 51 51 51 52 52 54 57 60 59 56 54 52 51
57 56 62 63 60 60 58 58 60 60 58 56 50 47 49 53 58 60 58 60 64 63 62 69 74 75 77 82 86 86 84 85 86 85 83 81 76 72 72 72 72 70 68 66 65 63 62 61 59 55 52 50 49 49 51 53 55 58 58 56 54 52 51
50 57 64 63 63 66 65 63 62 61 61 60 51 44 48 53 55 58 59 61 66 68 65 67 74 78 79 82 88 90 85 82 83 84 83 81 77 74 74 74 75 75 73 72 70 70 69 68 66 62 56 52 51 51 52 53 55 56 57 56 54 53 52
47 56 60 59 63 68 67 64 63 61 60 62 57 51 55 57 51 52 61 65 68 72 70 68 72 77 79 80 85 91 91 86 83 85 87 86 83 81 80 79 79 78 76 74 74 74 73 73 73 70 65 59 55 55 56 56 58 60 60 58 55 54 52
50 55 57 59 63 67 66 64 63 61 58 59 61 60 63 62 53 54 64 67 69 72 73 72 72 74 77 79 80 85 90 89 87 88 89 90 90 89 85 83 82 80 78 76 75 76 76 75 74 74 72 67 62 61 61 62 64 66 65 62 59 58 55
49 53 56 59 60 62 64 62 62 61 58 58 61 62 67 67 62 64 69 69 71 72 73 76 76 74 75 77 78 80 84 86 87 89 89 89 92 93 89 86 85 82 80 79 77 76 77 76 75 75 75 75 72 69 68 68 70 72 71 68 65 63 61
46 50 53 56 57 58 60 61 62 61 58 59 61 63 71 74 70 69 74 75 74 72 72 77 78 75 74 75 76 78 79 80 82 85 87 87 89 91 88 86 85 82 81 80 78 77 76 75 76 76 78 79 79 79 77 75 75 75 76 75 71 69 68
44 48 53 57 57 55 55 59 62 62 61 62 61 62 72 81 76 72 77 80 78 75 73 75 77 76 75 75 75 75 77 79 80 82 86 87 88 89 88 85 83 82 80 80 80 80 80 79 79 80 81 83 84 85 85 83 82 81 80 80 76 73 75
41 47 54 58 58 55 56 58 59 62 65 65 63 62 71 82 79 73 77 81 81 78 75 75 78 77 74 75 75 73 74 77 79 82 85 85 85 86 85 84 82 81 81 81 80 81 81 81 81 81 83 84 85 87 88 88 87 85 86 87 83 79 81
38 48 53 52 56 58 60 62 62 66 69 67 65 64 69 80 80 75 77 80 79 77 75 75 79 78 76 76 76 74 72 74 75 77 78 79 78 79 81 81 81 80 80 80 79 80 81 80 80 81 83 85 86 88 90 91 90 88 91 93 90 85 86
40 50 51 48 56 61 60 62 66 69 69 68 66 65 67 76 79 76 77 77 75 73 72 73 77 81 81 79 78 77 73 72 73 73 74 76 75 75 75 75 76 77 78 79 79 81 82 83 84 85 86 88 90 89 89 92 93 93 94 97 95 90 87
40 46 46 45 51 54 54 57 63 67 68 67 66 66 68 73 77 79 79 77 72 69 68 68 71 79 85 82 79 80 77 74 75 74 73 76 77 76 75 74 75 78 78 77 78 80 82 83 85 88 90 91 93 94 93 92 92 93 93 95 96 93 89
43 46 47 46 47 47 47 50 56 62 66 68 68 69 71 72 74 76 76 75 72 68 67 69 68 74 86 87 81 81 80 77 77 75 74 77 77 74 74 74 76 78 76 75 77 80 80 80 82 85 87 87 88 92 93 92 91 91 91 91 91 91 91
49 52 51 50 52 52 49 49 52 57 63 67 68 68 69 69 70 70 69 72 75 72 70 70 66 68 82 89 86 83 81 77 76 76 75 76 76 75 75 75 76 78 77 76 78 79 78 79 79 79 81 84 86 88 89 89 90 91 90 89 88 88 90
50 52 50 51 52 50 48 48 51 54 60 66 67 66 65 65 66 67 65 68 73 74 73 72 67 66 75 85 87 85 81 77 75 73 72 73 74 75 78 80 81 82 83 83 82 80 79 80 80 78 78 80 83 85 86 86 88 89 89 90 91 90 90
49 49 49 50 47 43 44 46 49 53 59 64 68 70 68 65 66 67 66 65 68 70 71 71 69 66 67 74 83 85 79 75 72 70 69 70 71 71 75 81 82 84 87 88 87 86 85 84 83 80 77 76 79 85 89 90 91 90 89 89 91 91 91
52 49 48 49 47 42 41 42 45 51 57 62 70 73 70 67 69 69 67 66 67 68 68 67 69 69 66 68 77 82 79 74 71 67 67 69 69 66 69 75 79 82 86 87 85 86 87 84 82 80 77 77 80 86 90 91 92 93 92 91 91 90 88
52 52 51 51 48 43 40 41 43 47 54 61 67 69 67 68 72 72 70 69 69 68 68 69 70 73 72 70 73 77 77 76 72 67 66 69 68 64 65 69 72 76 80 81 81 83 83 81 81 79 77 76 79 82 84 86 88 89 89 88 87 86 84
51 54 54 52 49 46 43 43 45 48 54 57 60 63 66 69 71 73 73 71 68 69 72 73 73 76 76 74 74 75 74 73 69 66 67 68 66 63 61 64 68 72 76 78 80 83 83 82 83 81 79 78 80 81 84 87 88 88 87 85 85 84 83
52 54 55 53 51 50 48 47 48 50 52 55 57 61 66 67 70 73 74 73 71 70 72 73 74 76 77 76 76 76 73 67 65 65 66 64 62 60 58 59 63 68 72 74 77 80 82 82 82 81 80 80 80 81 83 85 86 87 87 86 86 84 83
54 55 55 54 53 54 54 52 52 52 53 57 59 60 62 65 68 70 71 72 73 71 70 73 74 75 76 76 74 73 70 66 66 69 67 63 60 58 56 56 58 60 63 65 65 68 72 74 76 76 75 73 72 72 73 75 76 78 79 79 80 81 81
51 52 53 55 57 59 58 57 57 56 57 60 62 62 62 64 67 68 67 69 72 72 71 74 75 75 75 73 71 69 68 66 69 72 69 65 61 57 54 54 54 54 55 57 56 58 62 66 69 70 70 67 67 67 68 68 68 69 70 71 72 72 72
49 53 57 60 61 61 60 60 61 60 60 62 65 67 65 65 68 70 67 68 75 78 75 73 73 72 71 69 67 66 66 66 67 68 67 65 64 60 55 53 52 52 52 53 54 56 59 63 65 66 65 63 62 62 61 61 60 60 61 62 64 64 63
51 54 59 63 63 61 60 61 62 61 62 65 70 71 69 67 70 72 69 69 76 80 76 72 69 68 67 66 64 62 63 64 65 65 64 63 62 61 59 58 58 57 57 56 57 58 59 59 60 59 57 55 55 55 54 55 54 54 54 55 58 59 60
50 52 59 63 63 61 59 59 59 60 60 64 72 79 76 71 71 73 72 72 77 79 76 72 68 65 65 65 62 60 61 64 65 66 66 65 63 63 63 63 62 60 57 56 56 55 55 55 54 54 53 52 52 52 53 53 53 53 52 52 54 55 56
53 55 59 60 61 62 61 61 62 62 61 66 78 87 83 74 72 75 75 74 75 76 74 72 70 69 67 66 63 62 63 66 68 69 70 69 68 67 66 65 62 58 56 54 52 51 50 50 50 51 51 50 51 51 52 53 53 53 53 53 53 54 54
54 53 53 55 58 61 62 63 63 63 65 73 84 88 83 79 79 81 83 82 79 75 74 75 75 74 72 70 68 67 67 68 69 71 71 71 69 68 68 68 64 59 57 56 54 52 52 51 51 50 50 50 50 50 50 52 52 53 53 53 52 52 53
49 46 47 51 56 60 61 60 61 65 70 78 82 80 78 80 81 80 83 86 82 76 73 75 76 75 74 73 72 69 69 69 69 69 68 67 65 64 65 66 64 60 57 55 53 51 51 51 52 51 50 49 49 48 48 49 49 48 49 48 47 48 49
45 44 44 44 49 55 57 57 60 67 71 72 71 71 72 73 73 71 74 80 81 76 71 71 72 71 70 68 66 65 62 61 61 60 60 59 57 56 57 57 57 56 54 52 49 47 46 47 49 49 47 46 44 44 44 44 43 43 43 43 42 43 43